Погода в Братске

Погода в Братске : погода сейчас, прогноз погоды и архив. Всё, что Вы хотите узнать о погоде в Братске!

Поиск расширенной информации на нашем сайте:

Другие новости

Новости СМИ2

Главная страница сайта

Новости сайта

03.07.2017

Напоминаем, что на нашем специализированном сайте Метеоцентр.Азия вы можете получить высокодетализированные автоматические прогнозы погоды по пунктам России, СНГ и мира в авиационном формате (включающие направление и скорость ветра, видимость, явления погоды, количество и форму облачности, нижнюю и верхнюю границу облачности).


Погода в Братске - сегодня

Время (UTC), дата Ветер
(°,м/с) 
Видим.   Явления Облачность Т
(°С)
Тd
(°С)
f(%) Тe
(°С)
Pmin
(гПа)
dP
(гПа)
Po
(мм)
O2
(г/м3)
Тmin Tmax R s Состояние
почвы
18 22.07.17 030 (СВ) н/о    н/о 
+12.6 +10.5 87 +16  1016.2  725  277           
21 22.07.17 тихо ()   1000 м  туман на расстоянии  1/0 средняя 
[Ac lent]
+9.1 +8.6 97 +9  1016.9  725  281           
00 23.07.17 220 (ЮЗ) 20000 м  {туман}  1/0 верхняя 
[Ci sp]
+12.3 +10.5 89 +16  1017.1  0.8  726  278  +8.8        сухая 
03 23.07.17 060 (СВ) 20000 м    1/0 1000 м 
[Cu med, cong]
+19.7 +10.1 54 +23  1015.8  726  271           
06 23.07.17 230 (ЮЗ) 20000 м    1/1 1000 м 
[Cu hum]
+21.4 +9.7 47 +23  1015  -0.5  726  269           
09 23.07.17 230 (ЮЗ) 20000 м    1/1 1000 м 
[Cu hum]
+22.5 +7.1 37 +23  1013.9  -0.9  725  269           
12 23.07.17 200 (Ю) 20000 м    1/0 верхняя 
[Ci sp]
+20.7 +12.6 60 +26  1013.5  -0.6  725  269    +22.6       
15 23.07.17 030 (СВ) н/о    1/0 верхняя 
[Ci sp]
+17 +8.1 56 +18  1014.3  725  273           
18 23.07.17 020 (С) н/о    3/0 верхняя 
[Ci fib]
+12.7 +8.6 76 +14  1014.1  -0.8  724  277           
21 23.07.17 060 (СВ) 20000 м    1/0 верхняя 
[Ci fib]
+8.8 +8.1 95 +10  1014.4  -0.4  724  281           
00 24.07.17 060 (СВ) 20000 м    1/0 верхняя 
[Ci sp]
+13.5 +9.5 77 +16  1013.6  0.1  724  276  +8.7        сухая 
03 24.07.17 180 (Ю) 20000 м    3/0 верхняя 
[Ci fib]
+19.9 +10.4 54 +23  1011.9  -0.6  723  270           
06 24.07.17 130 (ЮВ) 20000 м    3/0 верхняя 
[Ci fib]
+25.4 +8.4 34 +25  1009.6  -1.4  722  265           
09 24.07.17 160 (Ю) 20000 м    3/1 1000 м верхняя 
[Cu med, cong|Ci sp]
+25 +7.6 33 +25  1008.5  -1.1  721  265           
12 24.07.17 070 (В) 20000 м    3/1 1000 м верхняя 
[Cu hum|Ci sp]
+24.8 +6.7 31 +25  1008.1  -0.4  721  265    +26.3       
15 24.07.17 030 (СВ) н/о    3/0 верхняя 
[Ci sp]
+20.2 +7.7 44 +20  1009.3  0.4  721  269           
18 24.07.17 280 (З) н/о    ясно 
+15.7 +11 74 +20  1009.8  -0.2  721  273           
21 24.07.17 тихо ()   20000 м    1/0 верхняя 
[Ci sp]
+13.9 +8.9 72 +14  1010  0.1  721  275           
00 25.07.17 130 (ЮВ) 20000 м    9/0 средняя 
[Ac trans]
+15.9 +11.5 75 +21  1009.8  0.2  721  272  +12.6        сухая 
03 25.07.17 180 (Ю) 20000 м    4/0 средняя 
[Ac trans]
+21.1 +13 60 +27  1008.5  -0.4  721  267           
06 25.07.17 190 (Ю) 20000 м    3/3 1000 м 
[Cu hum]
+27.3 +13.8 43 +35  1006.6  -0.9  720  261           
09 25.07.17 200 (Ю) 20000 м    1/1 600 м 
[Cu med, cong]
+26.9 +9.5 33 +28  1005.8  -0.9  717  261           
12 25.07.17 220 (ЮЗ) 20000 м    ясно 
+24.8 +15 54 +35  1005.5  -0.5  719  263    +28.1       
15 25.07.17 350 (С) н/о    ясно 
+20.6 +7.2 42 +21  1006.6  0.3  720  268           
18 25.07.17 280 (З) н/о    3/0 верхняя 
[Ci sp]
+18.1 +9.5 57 +21  1006.8  -0.2  719  270           
Время (UTC), дата Ветер
(°,м/с) 
Видим.   Явления Облачность Т
(°С)
Тd
(°С)
f(%) Тe
(°С)
Pmin
(гПа)
dP
(гПа)
Po
(мм)
O2
(г/м3)
Тmin Tmax R s Состояние
почвы

Для получения пояснительной информации подведите курсор к названию столбца.

ПОГОДА в Братске - архив

Всё, что Вы хотите узнать о погоде в Братске - удобно и подробно!

Выберите нужную дату (начиная с 1 января 2015* года) и нажмите кнопку "Найти".
Будут отображены архивные сводки погоды по пункту Братск, начиная с указанной даты.


Отображать данные в формате CSV (для использования в таблицах Excel)


Внимание! Наш архив погоды предназначен исключительно для личного некоммерческого использования в познавательных целях. Если Вам необходимы официальные справки о состоянии погоды (для производственных, юридических, коммерческих и т.п. целей), обращайтесь в органы Росгидромета.

*Примечание: данная дата относится к архиву по метеостанциям СССР (Россия, СНГ, Балтия).
Архив по метеостанциям Зарубежной Европы и Азии (кроме Китая) хранится 10 дней, по другим регионам земного шара (Китай, Африка, Америка, Австралия, Океания) - 1 день.

Братск - район местоположения метеостанции


Название, широта, долгота, высота метеостанции:
Братск (город) 56.3°ш. 101.8°д. 416 м над ур. моря [Российская Федерация]

Дополнительная информация

В oтличие oт бoльшинства пoгoдных сайтoв мы публикуем пoдрoбную метеoинфoрмацию в детальнoм прoфессиoнальнoм фoрмате.

Характеристики температуры и влажнoсти вoздуха измеряются на высoте 2 м в тени вдали oт зданий и деревьев.
Скoрoсть ветра измеряется на высoте 10 м (на урoвне рoста челoвека скoрoсть ветра ниже в 1.5-2 раза). Если метеoстанция нахoдится в гoрoде или в лесу, тo скoрoсть ветра занижена на 2-4 м/с пo сравнению с oткрытым местoм. Скoрoсть ветра над акватoриями крупных рек и oзёр, а также на вершинах хoлмoв на 2-5 м/с выше, чем в oбычных услoвиях.
Атмoсфернoе давление в разных тoчках местнoсти мoжет значительнo oтличаться oт давления на метеoстанции, в зависимoсти oт услoвий рельефа (при пoдъёме на 10 м давление пoнижается примернo на 1 мм рт.ст.).